Torna al catalogo

OPTICUBE 04

AttivoScienzaPO
NORAD 41851·PAYLOAD·🇺🇸 United States

Lanciato Nov 11, 2016 da Vandenberg Space Force Base

Loading…

Prossimi Passaggi (prossime 24 ore)

TLE

AggiornatoSource: Space-Track

Epoca: Sep 14, 2026, 13:10 UTC

1 41851U 16067D   26257.54922661  .00001757  00000-0  11235-3 0  9991
2 41851  98.0585 114.4718 0015594 169.9859 190.1683 15.09971304538657

Traccia OPTICUBE 04 in tempo reale con AllMySat

Download on the App Store